Location: Gleizolles
(44.4833°N, 6.7667°E)
Time: 03:33:17
(UTC+00:00)

Vanguard 1 Rocket - Pass Details

Date: 01 July 2024
Orbit: 650 x 4219 km, 34.3° (Epoch: 15 July)

Event Time Altitude Azimuth Distance (km) Brightness Sun altitude
Rises 02:07:52 0° 264° (W) 5,276 10.9 -14.1°
Reaches altitude 10° 02:10:44 10° 260° (W) 4,638 10.6 -13.8°
Maximum altitude 02:24:41 59° 186° (S) 3,556 10.1 -12.3°
Drops below altitude 10° 02:48:26 10° 116° (ESE) 7,387 12.3 -9.5°
Sets 02:54:34 0° 113° (ESE) 8,457 12.6 -8.8°
